TimeEST,TemperatureF,Dew PointF,Humidity,Sea Level PressureIn,VisibilityMPH,Wind Direction,Wind SpeedMPH,Gust SpeedMPH,PrecipitationIn,Events,Conditions,WindDirDegrees,DateUTC
12:52 AM,41.0,35.1,79,30.05,10.0,WNW,4.6,-,N/A,,Overcast,290,2013-02-03 05:52:00
1:52 AM,37.9,34.0,86,30.02,10.0,WNW,4.6,-,N/A,,Clear,290,2013-02-03 06:52:00
2:52 AM,36.0,33.1,89,30.00,10.0,West,5.8,-,N/A,,Clear,270,2013-02-03 07:52:00
3:52 AM,34.0,33.1,96,29.98,10.0,WSW,3.5,-,N/A,,Clear,250,2013-02-03 08:52:00
4:52 AM,33.1,30.9,92,29.96,10.0,Calm,Calm,-,N/A,,Clear,0,2013-02-03 09:52:00
5:52 AM,32.0,32.0,100,29.97,9.0,West,5.8,-,N/A,,Clear,270,2013-02-03 10:52:00
7:52 AM,35.1,33.1,92,30.00,9.0,West,6.9,-,N/A,,Clear,260,2013-02-03 12:52:00
8:52 AM,39.9,36.0,86,30.00,10.0,West,9.2,-,N/A,,Clear,270,2013-02-03 13:52:00
9:52 AM,43.0,33.1,68,30.00,10.0,West,10.4,-,N/A,,Clear,270,2013-02-03 14:52:00
10:52 AM,46.9,28.9,50,29.99,10.0,West,12.7,-,N/A,,Clear,260,2013-02-03 15:52:00
11:52 AM,50.0,28.9,44,29.96,10.0,West,13.8,18.4,N/A,,Clear,260,2013-02-03 16:52:00
12:52 PM,50.0,26.1,39,29.93,10.0,WNW,12.7,18.4,N/A,,Mostly Cloudy,290,2013-02-03 17:52:00
1:52 PM,53.1,28.0,38,29.90,10.0,West,13.8,18.4,N/A,,Overcast,260,2013-02-03 18:52:00
2:52 PM,54.0,28.9,38,29.88,10.0,West,15.0,23.0,N/A,,Mostly Cloudy,270,2013-02-03 19:52:00
3:52 PM,55.0,27.0,34,29.89,10.0,West,13.8,25.3,N/A,,Mostly Cloudy,270,2013-02-03 20:52:00
4:52 PM,53.1,27.0,37,29.90,10.0,NW,8.1,-,N/A,,Scattered Clouds,310,2013-02-03 21:52:00
5:52 PM,48.9,27.0,43,29.92,10.0,NW,5.8,-,N/A,,Partly Cloudy,320,2013-02-03 22:52:00
6:52 PM,48.0,27.0,44,29.94,10.0,Calm,Calm,-,N/A,,Mostly Cloudy,0,2013-02-03 23:52:00
7:52 PM,44.1,30.0,58,29.96,10.0,NW,3.5,-,N/A,,Mostly Cloudy,320,2013-02-04 00:52:00
8:52 PM,43.0,26.1,51,29.98,10.0,NNW,5.8,-,N/A,,Clear,340,2013-02-04 01:52:00
9:52 PM,41.0,25.0,53,30.01,10.0,NNW,6.9,-,N/A,,Clear,330,2013-02-04 02:52:00
10:52 PM,37.9,23.0,55,30.02,10.0,Calm,Calm,-,N/A,,Clear,0,2013-02-04 03:52:00
11:52 PM,35.1,25.0,67,30.02,10.0,NW,4.6,-,N/A,,Clear,320,2013-02-04 04:52:00